IT9IRS-1 Weather Reports


time (UTC)temp
F
wind
direction
speed
knots
gust
knots
rain 1hr
in
rain 24hr
in
rain mn
in
humidity
%
barometer
mb
20260507162504 73 287 7.0 9.6 0.00 0.00 0.00 52 1004.2
20260507162003 73 283 8.7 11.3 0.00 0.00 0.00 52 1004.2
20260507161503 73 281 8.7 11.3 0.00 0.00 0.00 52 1004.2
20260507161215 73 276 8.7 14.8 0.00 0.00 0.00 52 1004.2
20260507160503 73 271 8.7 14.8 0.00 0.00 0.00 52 1004.2
20260507160004 73 258 7.8 11.3 0.00 0.00 0.00 52 1004.2
20260507155503 73 251 7.8 10.4 0.00 0.00 0.00 53 1004.2
20260507155003 73 249 8.7 12.2 0.00 0.00 0.00 53 1004.2
20260507154503 74 240 8.7 12.2 0.00 0.00 0.00 53 1004.2
20260507154004 74 205 8.7 11.3 0.00 0.00 0.00 53 1004.2
20260507153716 74 183 8.7 11.3 0.00 0.00 0.00 54 1004.2
20260507153003 74 217 8.7 13.0 0.00 0.00 0.00 54 1004.2
20260507152503 74 218 8.7 12.2 0.00 0.00 0.00 54 1004.2
20260507152003 74 202 8.7 12.2 0.00 0.00 0.00 55 1004.2
20260507151504 74 182 8.7 11.3 0.00 0.00 0.00 56 1004.2
20260507151003 74 180 10.4 13.0 0.00 0.00 0.00 56 1003.2
20260507150503 74 180 8.7 13.0 0.00 0.00 0.00 55 1003.2
20260507150217 74 178 7.0 13.0 0.00 0.00 0.00 55 1003.2
20260507145503 74 173 4.3 7.0 0.00 0.00 0.00 55 1004.2
20260507145004 75 179 5.2 8.7 0.00 0.00 0.00 54 1004.2
20260507144503 74 180 6.1 8.7 0.00 0.00 0.00 54 1004.2
20260507144003 74 211 7.0 13.0 0.00 0.00 0.00 54 1004.2
20260507143503 75 238 7.8 13.0 0.00 0.00 0.00 54 1004.2
20260507143004 75 198 7.8 9.6 0.00 0.00 0.00 53 1004.2
20260507142717 75 180 7.8 10.4 0.00 0.00 0.00 55 1004.2
20260507142004 75 193 8.7 13.9 0.00 0.00 0.00 54 1004.2
20260507141504 75 193 9.6 13.9 0.00 0.00 0.00 55 1004.2
20260507141004 75 207 8.7 12.2 0.00 0.00 0.00 56 1004.2
20260507140504 75 205 7.8 9.6 0.00 0.00 0.00 56 1004.2
20260507140004 75 180 7.8 9.6 0.00 0.00 0.00 56 1004.2
20260507135504 75 180 7.8 11.3 0.00 0.00 0.00 56 1004.2
20260507135004 75 213 7.8 11.3 0.00 0.00 0.00 56 1004.2
20260507134504 75 258 7.0 9.6 0.00 0.00 0.00 54 1004.2
20260507134004 75 252 8.7 10.4 0.00 0.00 0.00 55 1004.2
20260507133504 74 212 10.4 20.0 0.00 0.00 0.00 56 1004.2
20260507133004 74 220 9.6 20.0 0.00 0.00 0.00 57 1004.2
20260507132713 75 238 8.7 20.0 0.00 0.00 0.00 55 1004.2
20260507132004 75 302 7.8 12.2 0.00 0.00 0.00 56 1004.2
20260507131504 75 286 7.8 12.2 0.00 0.00 0.00 57 1004.2
20260507131004 73 247 7.8 10.4 0.00 0.00 0.00 58 1004.2
20260507130506 74 237 7.8 11.3 0.00 0.00 0.00 60 1004.2
20260507130004 73 250 7.8 12.2 0.00 0.00 0.00 62 1004.2
20260507125506 72 255 7.0 12.2 0.00 0.00 0.00 62 1004.2
20260507125004 72 199 6.1 7.8 0.00 0.00 0.00 62 1004.2
20260507124506 72 174 5.2 8.7 0.00 0.00 0.00 62 1004.2
20260507124004 72 164 5.2 8.7 0.00 0.00 0.00 61 1004.2
20260507123504 72 157 6.1 8.7 0.00 0.00 0.00 61 1004.2
20260507123217 73 163 6.1 8.7 0.00 0.00 0.00 61 1004.2
20260507122503 73 172 5.2 7.0 0.00 0.00 0.00 61 1004.2
20260507122004 73 169 5.2 8.7 0.00 0.00 0.00 61 1004.2
20260507121504 72 165 5.2 8.7 0.00 0.00 0.00 60 1004.2
20260507121004 72 165 5.2 8.7 0.00 0.00 0.00 60 1004.2
20260507120503 72 167 7.0 8.7 0.00 0.00 0.00 60 1004.2
20260507120004 73 169 7.0 7.8 0.00 0.00 0.00 60 1004.2
20260507115504 73 170 6.1 7.8 0.00 0.00 0.00 60 1004.2
20260507115004 73 174 6.1 9.6 0.00 0.00 0.00 60 1004.2
20260507114503 73 175 7.8 9.6 0.00 0.00 0.00 60 1004.2
20260507114003 72 170 7.8 11.3 0.00 0.00 0.00 60 1004.2
20260507113504 72 166 8.7 11.3 0.00 0.00 0.00 59 1004.2
20260507113004 72 171 8.7 11.3 0.00 0.00 0.00 59 1004.2
20260507112505 72 172 7.8 11.3 0.00 0.00 0.00 59 1004.2
20260507112003 73 164 7.8 9.6 0.00 0.00 0.00 59 1004.2
20260507111504 73 168 8.7 12.2 0.00 0.00 0.00 58 1004.2
20260507111003 73 170 8.7 12.2 0.00 0.00 0.00 58 1004.2
20260507110503 74 160 7.8 12.2 0.00 0.00 0.00 58 1004.2
20260507110003 74 150 6.1 8.7 0.00 0.00 0.00 57 1004.2
20260507105503 74 144 6.1 9.6 0.00 0.00 0.00 57 1004.2
20260507105215 74 140 7.0 9.6 0.00 0.00 0.00 57 1004.2
20260507104504 74 135 7.0 9.6 0.00 0.00 0.00 56 1004.2
20260507104216 74 135 6.1 7.8 0.00 0.00 0.00 56 1004.2
20260507103504 75 137 6.1 10.4 0.00 0.00 0.00 56 1004.2
20260507103004 75 140 5.2 7.8 0.00 0.00 0.00 55 1004.2
20260507102504 75 154 6.1 9.6 0.00 0.00 0.00 55 1005.3
20260507102006 75 157 5.2 9.6 0.00 0.00 0.00 54 1005.3
20260507101504 76 128 4.3 6.1 0.00 0.00 0.00 55 1005.3
20260507101214 76 130 5.2 8.7 0.00 0.00 0.00 54 1005.3
20260507100717 75 109 7.0 9.6 0.00 0.00 0.00 55 1005.3
20260507100004 74 106 7.8 9.6 0.00 0.00 0.00 55 1005.3
20260507095504 74 111 7.8 10.4 0.00 0.00 0.00 56 1004.2
20260507095004 74 109 8.7 10.4 0.00 0.00 0.00 55 1004.2
20260507094504 74 99 7.8 10.4 0.00 0.00 0.00 54 1004.2
20260507094004 74 97 7.8 14.8 0.00 0.00 0.00 54 1004.2
20260507093504 74 101 10.4 14.8 0.00 0.00 0.00 53 1004.2
20260507093218 74 99 10.4 16.5 0.00 0.00 0.00 54 1004.2
20260507092504 73 96 12.2 16.5 0.00 0.00 0.00 53 1004.2
20260507092005 73 96 11.3 14.8 0.00 0.00 0.00 53 1004.2
20260507091504 73 101 10.4 13.9 0.00 0.00 0.00 54 1004.2
20260507091004 73 99 10.4 13.9 0.00 0.00 0.00 55 1004.2
20260507090506 73 93 11.3 15.6 0.00 0.00 0.00 54 1004.2
20260507090005 73 94 12.2 15.6 0.00 0.00 0.00 55 1004.2
20260507085504 73 99 12.2 15.6 0.00 0.00 0.00 53 1004.2
20260507085004 73 103 11.3 17.4 0.00 0.00 0.00 53 1004.2
20260507084504 73 101 10.4 17.4 0.00 0.00 0.00 51 1004.2
20260507084004 73 96 10.4 17.4 0.00 0.00 0.00 52 1004.2
20260507083503 73 90 9.6 12.2 0.00 0.00 0.00 52 1004.2
20260507083004 73 102 8.7 12.2 0.00 0.00 0.00 52 1004.2
20260507082506 73 104 9.6 13.0 0.00 0.00 0.00 53 1004.2
20260507082214 73 96 8.7 13.0 0.00 0.00 0.00 53 1004.2
20260507081503 73 99 8.7 13.0 0.00 0.00 0.00 52 1004.2
20260507081004 73 101 8.7 18.2 0.00 0.00 0.00 52 1004.2
20260507080504 73 97 10.4 18.2 0.00 0.00 0.00 51 1004.2
20260507080004 72 85 11.3 15.6 0.00 0.00 0.00 51 1004.2
20260507075503 72 82 11.3 15.6 0.00 0.00 0.00 52 1004.2
20260507075003 72 82 12.2 15.6 0.00 0.00 0.00 50 1004.2
20260507074503 72 85 12.2 13.0 0.00 0.00 0.00 50 1004.2
20260507074003 73 83 12.2 15.6 0.00 0.00 0.00 48 1004.2
20260507073716 72 83 11.3 15.6 0.00 0.00 0.00 50 1004.2
20260507073003 72 88 11.3 14.8 0.00 0.00 0.00 50 1004.2
20260507072503 72 87 10.4 14.8 0.00 0.00 0.00 50 1004.2
20260507072003 72 84 9.6 12.2 0.00 0.00 0.00 49 1004.2
20260507071718 72 85 9.6 13.9 0.00 0.00 0.00 50 1004.2
20260507071003 72 90 9.6 13.9 0.00 0.00 0.00 49 1005.3
20260507070503 72 93 9.6 11.3 0.00 0.00 0.00 50 1005.3
20260507070006 72 99 9.6 13.0 0.00 0.00 0.00 50 1005.3
20260507065503 72 93 8.7 13.0 0.00 0.00 0.00 48 1004.2
20260507065003 72 79 7.0 10.4 0.00 0.00 0.00 47 1004.2
20260507064503 72 77 7.8 10.4 0.00 0.00 0.00 49 1004.2
20260507064003 72 78 7.8 10.4 0.00 0.00 0.00 48 1004.2
20260507063504 72 74 6.1 8.7 0.00 0.00 0.00 49 1004.2
20260507063004 71 72 6.1 9.6 0.00 0.00 0.00 48 1004.2
20260507062504 71 77 6.1 9.6 0.00 0.00 0.00 47 1004.2
20260507062004 71 73 4.3 6.1 0.00 0.00 0.00 44 1004.2
20260507061504 70 49 5.2 10.4 0.00 0.00 0.00 43 1004.2
20260507061004 70 46 5.2 10.4 0.00 0.00 0.00 42 1004.2
20260507060504 69 50 4.3 7.8 0.00 0.00 0.00 45 1004.2
20260507060217 69 49 5.2 8.7 0.00 0.00 0.00 45 1004.2
20260507055504 68 44 5.2 8.7 0.00 0.00 0.00 46 1003.2
20260507055004 68 38 4.3 6.1 0.00 0.00 0.00 47 1003.2
20260507054504 68 41 4.3 6.1 0.00 0.00 0.00 47 1003.2
20260507054004 67 58 5.2 7.0 0.00 0.00 0.00 47 1003.2
20260507053717 67 55 5.2 7.0 0.00 0.00 0.00 47 1003.2
20260507053004 66 44 5.2 7.0 0.00 0.00 0.00 48 1003.2
20260507052505 66 44 5.2 7.0 0.00 0.00 0.00 49 1003.2
20260507052216 66 44 4.3 7.0 0.00 0.00 0.00 49 1003.2
20260507051504 65 36 5.2 6.1 0.00 0.00 0.00 49 1003.2
20260507051004 65 39 4.3 6.1 0.00 0.00 0.00 49 1003.2
20260507050715 65 45 5.2 7.8 0.00 0.00 0.00 48 1003.2
20260507050004 65 45 6.1 7.8 0.00 0.00 0.00 47 1003.2
20260507045716 65 46 7.0 7.8 0.00 0.00 0.00 47 1003.2
20260507045004 65 41 7.0 10.4 0.00 0.00 0.00 46 1002.2
20260507044504 65 41 7.8 10.4 0.00 0.00 0.00 46 1002.2
20260507044004 65 45 8.7 11.3 0.00 0.00 0.00 46 1002.2
20260507043504 65 45 8.7 12.2 0.00 0.00 0.00 46 1002.2
20260507043004 65 44 8.7 12.2 0.00 0.00 0.00 46 1002.2
20260507042714 65 43 7.8 12.2 0.00 0.00 0.00 45 1002.2
20260507042003 65 45 8.7 12.2 0.00 0.00 0.00 45 1002.2
20260507041715 65 45 8.7 11.3 0.00 0.00 0.00 45 1002.2
20260507041004 65 52 7.8 11.3 0.00 0.00 0.00 44 1002.2
20260507040504 65 49 7.8 11.3 0.00 0.00 0.00 44 1002.2
20260507040003 65 41 7.0 9.6 0.00 0.00 0.00 44 1002.2
20260507035504 65 41 6.1 9.6 0.00 0.00 0.00 44 1002.2
20260507035215 65 42 6.1 9.6 0.00 0.00 0.00 44 1002.2
20260507034506 66 43 7.8 11.3 0.00 0.00 0.00 43 1002.2
20260507034004 66 45 7.8 11.3 0.00 0.00 0.00 42 1003.2
20260507033503 66 46 7.8 11.3 0.00 0.00 0.00 42 1003.2
20260507033005 66 46 7.8 11.3 0.00 0.00 0.00 41 1003.2
20260507032504 67 47 8.7 14.8 0.00 0.00 0.00 40 1002.2
20260507032004 67 50 8.7 14.8 0.00 0.00 0.00 39 1002.2
20260507031505 67 53 8.7 11.3 0.00 0.00 0.00 39 1002.2
20260507031003 67 60 9.6 14.8 0.00 0.00 0.00 38 1003.2
20260507030503 68 69 10.4 14.8 0.00 0.00 0.00 37 1003.2
20260507030214 68 75 11.3 13.0 0.00 0.00 0.00 36 1003.2
20260507025503 67 72 12.2 17.4 0.00 0.00 0.00 38 1003.2
20260507025004 67 69 10.4 15.6 0.00 0.00 0.00 40 1003.2
20260507024506 66 62 8.7 10.4 0.00 0.00 0.00 45 1003.2
20260507024004 65 56 7.8 10.4 0.00 0.00 0.00 47 1004.2
20260507023504 65 49 7.0 8.7 0.00 0.00 0.00 50 1004.2
20260507023004 65 48 7.0 8.7 0.00 0.00 0.00 52 1004.2
20260507022504 65 56 7.0 8.7 0.00 0.00 0.00 52 1004.2
20260507022218 64 61 7.8 11.3 0.00 0.00 0.00 55 1004.2
20260507021504 64 58 7.0 11.3 0.00 0.00 0.00 56 1004.2
20260507021004 64 47 7.0 8.7 0.00 0.00 0.00 58 1004.2
20260507020504 64 46 6.1 7.8 0.00 0.00 0.00 59 1004.2
20260507020004 64 50 6.1 7.8 0.00 0.00 0.00 60 1004.2
20260507015504 64 48 6.1 7.8 0.00 0.00 0.00 61 1004.2
20260507015004 64 50 6.1 7.8 0.00 0.00 0.00 62 1004.2
20260507014504 64 56 6.1 8.7 0.00 0.00 0.00 63 1004.2
20260507014004 64 52 7.0 8.7 0.00 0.00 0.00 64 1005.3
20260507013505 64 55 7.0 9.6 0.00 0.00 0.00 65 1005.3
20260507013004 64 54 7.0 9.6 0.00 0.00 0.00 65 1005.3
20260507012504 64 47 7.0 9.6 0.00 0.00 0.00 66 1005.3
20260507012004 64 45 7.0 8.7 0.00 0.00 0.00 67 1005.3
20260507010505 64 49 6.1 11.3 0.00 0.00 0.00 73 1005.3
20260507010215 64 53 7.0 11.3 0.00 0.00 0.00 74 1005.3
20260507005504 63 51 6.1 7.8 0.00 0.00 0.00 77 1005.3
20260507005003 63 42 5.2 6.1 0.00 0.00 0.00 79 1005.3
20260507004504 62 38 4.3 5.2 0.00 0.00 0.00 81 1005.3
20260507004003 62 32 4.3 4.3 0.00 0.00 0.00 82 1006.3
20260507003503 62 16 3.5 4.3 0.00 0.00 0.00 82 1006.3
20260507003004 62 4 3.5 4.3 0.00 0.00 0.00 83 1006.3
20260507002503 62 351 3.5 4.3 0.00 0.00 0.00 83 1006.3
20260507002004 62 328 2.6 4.3 0.00 0.00 0.00 83 1006.3
20260507001503 62 315 3.5 4.3 0.00 0.00 0.00 83 1006.3
20260507001004 62 317 3.5 4.3 0.00 0.00 0.00 83 1006.3
20260507000503 62 322 3.5 4.3 0.00 0.00 0.00 84 1006.3
20260507000003 62 334 2.6 4.3 0.00 0.00 0.00 84 1006.3
20260506235505 62 347 3.5 3.5 0.00 0.00 0.00 84 1006.3
20260506235004 62 342 3.5 4.3 0.00 0.00 0.00 84 1006.3
20260506234503 62 322 3.5 4.3 0.00 0.00 0.00 84 1006.3
20260506234005 62 323 3.5 4.3 0.00 0.00 0.00 84 1006.3
20260506233503 62 340 3.5 4.3 0.00 0.00 0.00 85 1006.3
20260506233003 62 5 5.2 7.0 0.00 0.00 0.00 85 1006.3
20260506232717 62 17 5.2 7.0 0.00 0.00 0.00 85 1006.3
20260506232003 62 11 5.2 7.8 0.00 0.00 0.00 86 1006.3
20260506231503 62 6 6.1 7.8 0.00 0.00 0.00 86 1006.3
20260506231003 61 3 7.0 10.4 0.00 0.00 0.00 87 1006.3
20260506230504 61 3 7.0 10.4 0.00 0.00 0.00 88 1006.3
20260506230004 61 2 7.0 7.8 0.00 0.00 0.00 88 1006.3
20260506225715 61 6 6.1 7.8 0.00 0.00 0.00 88 1006.3
20260506225004 61 17 6.1 8.7 0.00 0.00 0.00 87 1007.3
20260506224504 61 30 5.2 8.7 0.00 0.00 0.00 86 1007.3
20260506224214 61 22 4.3 8.7 0.00 0.00 0.00 85 1007.3
20260506223504 60 11 4.3 7.0 0.00 0.00 0.00 84 1007.3
20260506223004 60 5 3.5 4.3 0.00 0.00 0.00 83 1007.3
20260506222504 60 357 2.6 4.3 0.00 0.00 0.00 82 1007.3
20260506222215 60 2 2.6 4.3 0.00 0.00 0.00 82 1007.3
20260506221504 61 7 3.5 4.3 0.00 0.00 0.00 82 1007.3
20260506221004 61 347 2.6 4.3 0.00 0.00 0.00 81 1007.3
20260506220504 62 345 3.5 3.5 0.00 0.00 0.00 81 1007.3
20260506220006 63 13 3.5 3.5 0.00 0.00 0.00 81 1007.3
20260506215504 64 43 3.5 4.3 0.00 0.00 0.00 81 1007.3
20260506215213 64 47 3.5 4.3 0.00 0.00 0.00 81 1007.3
20260506214505 65 72 4.3 4.3 0.00 0.00 0.00 82 1007.3
20260506214004 66 86 3.5 4.3 0.00 0.00 0.00 82 1007.3
20260506213504 65 70 4.3 7.0 0.00 0.00 0.00 82 1007.3
20260506213215 65 68 4.3 7.0 0.00 0.00 0.00 82 1007.3
20260506212504 65 81 3.5 7.0 0.00 0.00 0.00 82 1007.3
20260506212004 65 66 4.3 7.0 0.00 0.00 0.00 82 1007.3
20260506211504 65 61 4.3 7.0 0.00 0.00 0.00 81 1007.3
20260506211004 65 94 2.6 4.3 0.00 0.00 0.00 81 1007.3
20260506210504 65 102 1.7 4.3 0.00 0.00 0.00 81 1007.3
20260506210004 65 36 1.7 4.3 0.00 0.00 0.00 81 1007.3
20260506205503 66 45 3.5 6.1 0.00 0.00 0.00 81 1007.3
20260506205004 66 64 5.2 6.1 0.00 0.00 0.00 80 1007.3
20260506204504 66 76 4.3 6.1 0.00 0.00 0.00 80 1007.3
20260506204004 66 66 4.3 7.8 0.00 0.00 0.00 80 1008.3
20260506203504 66 68 4.3 7.8 0.00 0.00 0.00 80 1008.3
20260506203004 66 71 4.3 7.8 0.00 0.00 0.00 80 1008.3
20260506202503 66 72 4.3 7.0 0.00 0.00 0.00 80 1008.3
20260506202003 66 76 4.3 7.0 0.00 0.00 0.00 80 1008.3
20260506201505 66 74 4.3 5.2 0.00 0.00 0.00 80 1008.3
20260506201003 66 85 4.3 6.1 0.00 0.00 0.00 80 1007.3
20260506200504 67 103 4.3 6.1 0.00 0.00 0.00 80 1007.3
20260506200004 66 96 4.3 7.0 0.00 0.00 0.00 80 1007.3
20260506195503 66 90 4.3 7.0 0.00 0.00 0.00 80 1007.3
20260506195003 67 96 5.2 7.0 0.00 0.00 0.00 80 1007.3
20260506194503 67 99 6.1 8.7 0.00 0.00 0.00 80 1007.3
20260506194003 67 99 7.0 11.3 0.00 0.00 0.00 80 1006.3
20260506193503 66 94 6.1 11.3 0.00 0.00 0.00 80 1006.3
20260506193004 66 90 7.0 10.4 0.00 0.00 0.00 81 1006.3
20260506192503 66 91 7.0 10.4 0.00 0.00 0.00 81 1006.3
20260506192003 66 92 7.0 10.4 0.00 0.00 0.00 82 1006.3
20260506191503 66 107 7.0 9.6 0.00 0.00 0.00 82 1006.3
20260506191005 66 113 6.1 9.6 0.00 0.00 0.00 83 1006.3
20260506190503 66 105 6.1 9.6 0.00 0.00 0.00 83 1006.3
20260506190214 66 103 6.1 9.6 0.00 0.00 0.00 83 1006.3
20260506185503 66 106 6.1 9.6 0.00 0.00 0.00 83 1006.3
20260506185003 66 101 7.0 8.7 0.00 0.00 0.00 83 1006.3
20260506184505 66 91 7.0 11.3 0.00 0.00 0.00 83 1006.3
20260506184004 66 86 7.0 11.3 0.00 0.00 0.00 82 1006.3
20260506183504 66 89 7.0 11.3 0.00 0.00 0.00 82 1006.3
20260506183005 66 89 7.0 9.6 0.00 0.00 0.00 82 1006.3
20260506182504 66 90 7.0 9.6 0.00 0.00 0.00 81 1006.3
20260506182004 66 83 8.7 13.0 0.00 0.00 0.00 81 1006.3
20260506181504 66 85 10.4 13.0 0.00 0.00 0.00 81 1006.3
20260506181004 66 92 10.4 12.2 0.00 0.00 0.00 81 1006.3
20260506180504 66 92 10.4 14.8 0.00 0.00 0.00 81 1006.3
20260506180215 66 90 10.4 14.8 0.00 0.00 0.00 81 1006.3
20260506175504 66 92 8.7 12.2 0.00 0.00 0.00 82 1006.3
20260506175216 66 90 8.7 13.9 0.00 0.00 0.00 82 1006.3
20260506174504 66 62 8.7 13.9 0.00 0.00 0.00 82 1006.3
20260506174004 66 69 7.8 12.2 0.00 0.00 0.00 83 1006.3
20260506173504 66 73 10.4 15.6 0.00 0.00 0.00 83 1006.3
20260506173218 66 75 11.3 17.4 0.00 0.00 0.00 83 1006.3
20260506172504 66 79 11.3 17.4 0.00 0.00 0.00 83 1006.3
20260506172004 66 85 11.3 14.8 0.00 0.00 0.00 83 1006.3
20260506171504 66 88 13.0 15.6 0.00 0.00 0.00 83 1006.3
20260506171215 66 87 12.2 15.6 0.00 0.00 0.00 83 1006.3
20260506170503 66 95 10.4 14.8 0.00 0.00 0.00 83 1006.3
20260506170004 66 100 13.0 14.8 0.00 0.00 0.00 83 1006.3
20260506165503 66 97 13.0 15.6 0.00 0.00 0.00 82 1006.3
20260506165003 66 99 12.2 15.6 0.00 0.00 0.00 82 1006.3
20260506164715 66 102 10.4 13.9 0.00 0.00 0.00 82 1006.3
20260506164004 66 109 9.6 14.8 0.00 0.00 0.00 82 1006.3
20260506163505 66 105 11.3 15.6 0.00 0.00 0.00 82 1006.3
20260506163004 66 105 10.4 15.6 0.00 0.00 0.00 82 1006.3